Location: Mound City (historical)
(34.0564°N, 117.2656°W)
Time: 02:09:04
(UTC+00:00)

Cosmos 676 Rocket - Pass Details

Date: 08 September 2024
Orbit: 751 x 781 km, 74.0° (Epoch: 10 October)

Event Time Altitude Azimuth Distance (km) Brightness Sun altitude
Exits shadow 12:29:22 - 209° (SSW) 2,506 6.3 -12.7°
Reaches altitude 10° 12:30:00 10° 211° (SSW) 2,263 6.0 -12.6°
Maximum altitude 12:35:02 56° 289° (WNW) 890 4.1 -11.6°
Drops below altitude 10° 12:40:06 10° 8° (N) 2,282 6.8 -10.6°
Sets 12:42:32 0° 12° (NNE) 3,214 7.6 -10.1°
